QPF
0.00 0.00 0.00 0.00 0.00 0.00 0.00 0.00 0.00 0.01 0.02 0.03 0.04 0.05 0.04 0.04 0.04 0.05 0.06 0.08 0.09 0.09 0.08 0.09 0.09 0.11 0.13 0.15 0.16 0.15 0.14 0.14 0.12 0.15 0.16 0.15 0.23 0.25 0.25 0.20 0.17 0.13 0.07
0.00 0.00 0.00 0.00 0.00 0.00 0.00 0.00 0.00 0.00 0.01 0.02 0.03 0.05 0.05 0.04 0.05 0.05 0.04 0.06 0.08 0.09 0.08 0.09 0.10 0.11 0.14 0.15 0.15 0.14 0.13 0.14 0.13 0.12 0.13 0.13 0.15 0.20 0.24 0.25 0.22 0.17 0.12
0.00 0.00 0.00 0.00 0.00 0.00 0.00 0.00 0.00 0.00 0.01 0.01 0.02 0.03 0.05 0.06 0.05 0.06 0.05 0.05 0.04 0.06 0.07 0.07 0.10 0.12 0.12 0.15 0.16 0.15 0.13 0.13 0.14 0.14 0.12 0.11 0.12 0.15 0.23 0.24 0.23 0.20 0.17
0.00 0.00 0.00 0.00 0.00 0.00 0.00 0.00 0.00 0.00 0.01 0.01 0.02 0.02 0.03 0.04 0.06 0.06 0.06 0.05 0.04 0.04 0.06 0.07 0.09 0.10 0.12 0.15 0.16 0.17 0.15 0.15 0.14 0.14 0.14 0.13 0.11 0.13 0.18 0.19 0.19 0.17 0.14
0.00 0.00 0.00 0.00 0.00 0.00 0.00 0.00 0.00 0.00 0.00 0.01 0.02 0.02 0.02 0.02 0.02 0.02 0.03 0.04 0.04 0.05 0.05 0.07 0.08 0.08 0.09 0.12 0.15 0.17 0.17 0.16 0.15 0.14 0.13 0.14 0.13 0.14 0.13 0.13 0.15 0.17 0.16
0.00 0.00 0.00 0.00 0.00 0.00 0.00 0.00 0.00 0.00 0.00 0.00 0.01 0.01 0.02 0.02 0.01 0.01 0.02 0.03 0.04 0.04 0.04 0.05 0.06 0.05 0.04 0.05 0.08 0.14 0.19 0.17 0.14 0.11 0.11 0.11 0.09 0.10 0.11 0.13 0.15 0.17 0.18
0.00 0.00 0.00 0.00 0.00 0.00 0.00 0.00 0.00 0.00 0.00 0.00 0.00 0.01 0.01 0.02 0.01 0.01 0.01 0.02 0.03 0.04 0.05 0.06 0.05 0.04 0.05 0.05 0.06 0.05 0.08 0.13 0.18 0.18 0.14 0.10 0.09 0.09 0.11 0.14 0.15 0.16 0.16
0.00 0.00 0.00 0.00 0.00 0.00 0.00 0.00 0.00 0.00 0.00 0.00 0.00 0.01 0.01 0.01 0.01 0.01 0.01 0.02 0.04 0.04 0.05 0.07 0.06 0.05 0.05 0.06 0.07 0.07 0.06 0.06 0.08 0.13 0.13 0.14 0.16 0.16 0.16 0.19 0.23 0.25 0.26
0.00 0.00 0.00 0.00 0.00 0.00 0.00 0.00 0.00 0.00 0.00 0.00 0.01 0.01 0.01 0.01 0.01 0.01 0.02 0.04 0.05 0.06 0.07 0.06 0.06 0.06 0.07 0.06 0.06 0.08 0.09 0.08 0.08 0.11 0.12 0.14 0.16 0.20 0.21 0.24 0.27 0.29 0.30
0.00 0.00 0.00 0.00 0.00 0.00 0.00 0.00 0.00 0.00 0.00 0.00 0.00 0.01 0.01 0.01 0.01 0.01 0.02 0.04 0.05 0.07 0.07 0.07 0.05 0.03 0.02 0.03 0.05 0.09 0.10 0.08 0.07 0.08 0.11 0.13 0.14 0.18 0.20 0.18 0.19 0.20 0.22
0.00 0.00 0.00 0.00 0.00 0.00 0.00 0.00 0.00 0.00 0.00 0.00 0.00 0.01 0.01 0.01 0.00 0.01 0.02 0.02 0.03 0.04 0.05 0.06 0.05 0.02 0.02 0.03 0.05 0.11 0.14 0.14 0.11 0.11 0.12 0.15 0.16 0.17 0.18 0.19 0.20 0.18 0.16
0.00 0.00 0.00 0.00 0.00 0.00 0.00 0.00 0.00 0.00 0.00 0.00 0.00 0.01 0.01 0.01 0.00 0.01 0.01 0.02 0.02 0.03 0.04 0.04 0.04 0.02 0.02 0.05 0.07 0.10 0.13 0.15 0.14 0.15 0.17 0.17 0.16 0.16 0.15 0.18 0.22 0.22 0.19
0.00 0.00 0.00 0.00 0.00 0.00 0.00 0.00 0.00 0.00 0.00 0.00 0.00 0.00 0.00 0.00 0.00 0.01 0.01 0.02 0.02 0.03 0.04 0.03 0.03 0.03 0.04 0.07 0.10 0.12 0.14 0.15 0.18 0.18 0.16 0.15 0.14 0.14 0.14 0.17 0.21 0.22 0.22
0.00 0.00 0.00 0.00 0.00 0.00 0.00 0.00 0.00 0.00 0.00 0.00 0.00 0.00 0.00 0.00 0.00 0.01 0.01 0.02 0.03 0.05 0.05 0.04 0.04 0.03 0.04 0.06 0.10 0.14 0.17 0.19 0.19 0.19 0.20 0.17 0.15 0.16 0.17 0.18 0.18 0.19 0.20
0.00 0.00 0.00 0.00 0.00 0.00 0.00 0.00 0.00 0.00 0.00 0.00 0.00 0.00 0.00 0.00 0.00 0.00 0.01 0.01 0.02 0.03 0.04 0.07 0.08 0.06 0.06 0.08 0.12 0.13 0.14 0.16 0.17 0.17 0.18 0.18 0.20 0.20 0.21 0.22 0.21 0.19 0.17
0.00 0.00 0.00 0.00 0.00 0.00 0.00 0.00 0.00 0.00 0.00 0.00 0.00 0.00 0.00 0.00 0.00 0.00 0.00 0.00 0.01 0.01 0.02 0.07 0.09 0.07 0.06 0.08 0.11 0.13 0.12 0.12 0.14 0.17 0.17 0.16 0.18 0.20 0.21 0.21 0.23 0.23 0.20
0.00 0.00 0.00 0.00 0.00 0.00 0.00 0.00 0.00 0.00 0.00 0.00 0.00 0.00 0.00 0.00 0.00 0.00 0.00 0.00 0.00 0.00 0.01 0.04 0.06 0.06 0.05 0.06 0.07 0.08 0.10 0.10 0.11 0.14 0.16 0.17 0.16 0.17 0.19 0.20 0.20 0.20 0.20
0.00 0.00 0.00 0.00 0.00 0.00 0.00 0.00 0.00 0.00 0.00 0.00 0.00 0.00 0.00 0.00 0.00 0.00 0.00 0.00 0.01 0.01 0.01 0.02 0.03 0.03 0.04 0.05 0.06 0.07 0.07 0.09 0.09 0.10 0.13 0.14 0.14 0.14 0.15 0.17 0.18 0.17 0.16
0.00 0.00 0.00 0.00 0.00 0.00 0.00 0.00 0.00 0.00 0.00 0.00 0.00 0.00 0.00 0.00 0.00 0.00 0.00 0.01 0.01 0.02 0.03 0.02 0.02 0.02 0.02 0.03 0.05 0.06 0.07 0.07 0.07 0.07 0.09 0.10 0.11 0.11 0.13 0.15 0.16 0.16 0.14
0.00 0.00 0.00 0.00 0.00 0.00 0.00 0.00 0.00 0.00 0.00 0.00 0.00 0.00 0.00 0.00 0.00 0.00 0.01 0.01 0.01 0.01 0.02 0.02 0.02 0.02 0.02 0.02 0.03 0.04 0.05 0.06 0.06 0.06 0.06 0.08 0.09 0.09 0.10 0.11 0.13 0.14 0.12
0.00 0.00 0.00 0.00 0.00 0.00 0.00 0.00 0.00 0.00 0.00 0.00 0.00 0.00 0.00 0.00 0.00 0.01 0.01 0.01 0.01 0.01 0.01 0.02 0.02 0.02 0.02 0.02 0.03 0.03 0.04 0.05 0.05 0.06 0.06 0.06 0.07 0.08 0.07 0.07 0.08 0.09 0.09
0.00 0.00 0.00 0.00 0.00 0.00 0.00 0.00 0.00 0.00 0.00 0.00 0.00 0.00 0.00 0.00 0.01 0.01 0.01 0.01 0.01 0.01 0.02 0.02 0.03 0.02 0.03 0.03 0.03 0.03 0.03 0.04 0.04 0.04 0.05 0.06 0.05 0.05 0.06 0.06 0.06 0.05 0.04
0.00 0.00 0.00 0.00 0.00 0.00 0.00 0.00 0.00 0.00 0.00 0.00 0.00 0.00 0.00 0.00 0.01 0.01 0.01 0.01 0.01 0.02 0.02 0.03 0.03 0.04 0.03 0.03 0.03 0.03 0.03 0.03 0.04 0.04 0.05 0.05 0.05 0.04 0.04 0.04 0.04 0.03 0.02
0.00 0.00 0.00 0.00 0.00 0.00 0.00 0.00 0.00 0.00 0.00 0.00 0.00 0.00 0.00 0.00 0.00 0.01 0.01 0.01 0.02 0.02 0.03 0.03 0.03 0.04 0.04 0.04 0.04 0.03 0.03 0.03 0.04 0.04 0.04 0.05 0.05 0.04 0.04 0.04 0.03 0.02 0.01
0.00 0.00 0.00 0.00 0.00 0.00 0.00 0.00 0.00 0.00 0.00 0.00 0.00 0.00 0.00 0.00 0.01 0.01 0.01 0.01 0.02 0.03 0.03 0.04 0.04 0.04 0.05 0.05 0.05 0.04 0.04 0.04 0.04 0.04 0.04 0.04 0.05 0.05 0.04 0.04 0.03 0.02 0.02
0.00 0.00 0.00 0.00 0.00 0.00 0.00 0.00 0.00 0.00 0.00 0.00 0.00 0.00 0.00 0.00 0.01 0.01 0.01 0.02 0.02 0.03 0.03 0.04 0.05 0.05 0.05 0.05 0.05 0.06 0.06 0.05 0.04 0.04 0.04 0.05 0.06 0.05 0.04 0.04 0.03 0.03 0.02
MSLP
1013.00 1013.06 1013.12 1013.13 1013.09 1012.99 1012.84 1012.65 1012.45 1012.26 1012.10 1011.99 1011.91 1011.85 1011.79 1011.71 1011.58 1011.41 1011.20 1010.96 1010.71 1010.47 1010.26 1010.11 1010.02 1009.98 1009.99 1010.03 1010.08 1010.12 1010.15 1010.16 1010.14 1010.12 1010.09 1010.08 1010.11 1010.19 1010.34 1010.57 1010.89 1011.30 1011.79
1012.72 1012.80 1012.87 1012.91 1012.91 1012.85 1012.73 1012.58 1012.40 1012.23 1012.07 1011.95 1011.86 1011.78 1011.71 1011.62 1011.50 1011.34 1011.14 1010.91 1010.65 1010.39 1010.15 1009.95 1009.78 1009.67 1009.61 1009.60 1009.61 1009.65 1009.69 1009.74 1009.78 1009.82 1009.86 1009.91 1009.97 1010.06 1010.20 1010.39 1010.66 1011.02 1011.46
1012.54 1012.64 1012.74 1012.82 1012.86 1012.83 1012.75 1012.62 1012.46 1012.28 1012.11 1011.96 1011.83 1011.72 1011.62 1011.51 1011.38 1011.23 1011.04 1010.81 1010.57 1010.31 1010.06 1009.82 1009.61 1009.45 1009.33 1009.27 1009.24 1009.26 1009.31 1009.38 1009.46 1009.55 1009.65 1009.74 1009.84 1009.95 1010.09 1010.28 1010.52 1010.83 1011.22
1012.42 1012.56 1012.70 1012.82 1012.89 1012.90 1012.85 1012.73 1012.58 1012.39 1012.20 1012.01 1011.83 1011.67 1011.52 1011.37 1011.22 1011.06 1010.88 1010.66 1010.43 1010.19 1009.93 1009.69 1009.46 1009.25 1009.09 1008.98 1008.91 1008.90 1008.94 1009.01 1009.11 1009.24 1009.37 1009.51 1009.65 1009.80 1009.96 1010.14 1010.38 1010.67 1011.04
1012.30 1012.49 1012.67 1012.83 1012.93 1012.97 1012.94 1012.84 1012.68 1012.49 1012.26 1012.04 1011.81 1011.60 1011.40 1011.22 1011.03 1010.85 1010.66 1010.46 1010.24 1010.00 1009.75 1009.50 1009.25 1009.02 1008.81 1008.65 1008.54 1008.49 1008.49 1008.55 1008.65 1008.79 1008.95 1009.12 1009.30 1009.49 1009.69 1009.91 1010.16 1010.46 1010.83
1012.13 1012.35 1012.57 1012.75 1012.88 1012.94 1012.92 1012.84 1012.69 1012.49 1012.26 1012.01 1011.75 1011.50 1011.26 1011.03 1010.82 1010.61 1010.41 1010.19 1009.97 1009.74 1009.49 1009.22 1008.96 1008.69 1008.45 1008.24 1008.07 1007.96 1007.92 1007.94 1008.01 1008.14 1008.31 1008.51 1008.73 1008.96 1009.21 1009.48 1009.79 1010.13 1010.52
1011.87 1012.11 1012.34 1012.53 1012.67 1012.74 1012.74 1012.67 1012.54 1012.35 1012.13 1011.87 1011.61 1011.34 1011.08 1010.82 1010.58 1010.35 1010.13 1009.90 1009.67 1009.42 1009.15 1008.87 1008.58 1008.28 1007.98 1007.71 1007.48 1007.31 1007.20 1007.16 1007.20 1007.30 1007.47 1007.68 1007.93 1008.21 1008.51 1008.85 1009.22 1009.63 1010.08
1011.54 1011.76 1011.97 1012.15 1012.27 1012.34 1012.35 1012.29 1012.19 1012.03 1011.83 1011.61 1011.36 1011.10 1010.84 1010.58 1010.33 1010.09 1009.84 1009.60 1009.34 1009.07 1008.79 1008.47 1008.14 1007.80 1007.45 1007.12 1006.82 1006.57 1006.39 1006.28 1006.26 1006.32 1006.46 1006.67 1006.93 1007.25 1007.62 1008.02 1008.46 1008.95 1009.48
1011.17 1011.35 1011.50 1011.63 1011.72 1011.77 1011.77 1011.73 1011.65 1011.53 1011.37 1011.20 1010.99 1010.78 1010.55 1010.31 1010.06 1009.82 1009.57 1009.31 1009.03 1008.74 1008.42 1008.08 1007.71 1007.32 1006.92 1006.52 1006.15 1005.83 1005.57 1005.39 1005.31 1005.31 1005.41 1005.60 1005.87 1006.21 1006.61 1007.07 1007.58 1008.14 1008.76
1010.83 1010.92 1011.00 1011.06 1011.09 1011.09 1011.07 1011.02 1010.96 1010.87 1010.77 1010.65 1010.51 1010.35 1010.17 1009.97 1009.76 1009.53 1009.29 1009.03 1008.75 1008.44 1008.10 1007.73 1007.33 1006.90 1006.45 1006.01 1005.58 1005.19 1004.86 1004.61 1004.46 1004.40 1004.45 1004.60 1004.85 1005.19 1005.61 1006.10 1006.66 1007.28 1007.96
1010.59 1010.57 1010.55 1010.50 1010.45 1010.38 1010.31 1010.24 1010.18 1010.12 1010.06 1009.99 1009.91 1009.82 1009.70 1009.56 1009.40 1009.21 1008.99 1008.75 1008.48 1008.17 1007.83 1007.45 1007.03 1006.58 1006.11 1005.63 1005.16 1004.72 1004.34 1004.03 1003.82 1003.70 1003.69 1003.80 1004.00 1004.32 1004.72 1005.22 1005.79 1006.44 1007.16
1010.48 1010.35 1010.20 1010.04 1009.88 1009.72 1009.58 1009.47 1009.38 1009.32 1009.28 1009.25 1009.22 1009.18 1009.12 1009.05 1008.94 1008.81 1008.64 1008.44 1008.19 1007.91 1007.59 1007.22 1006.80 1006.36 1005.88 1005.39 1004.91 1004.45 1004.04 1003.69 1003.43 1003.27 1003.20 1003.25 1003.41 1003.68 1004.05 1004.51 1005.07 1005.71 1006.44
1010.54 1010.28 1010.01 1009.73 1009.44 1009.18 1008.96 1008.77 1008.63 1008.53 1008.48 1008.46 1008.45 1008.45 1008.45 1008.43 1008.38 1008.31 1008.20 1008.05 1007.85 1007.61 1007.33 1006.99 1006.61 1006.19 1005.74 1005.27 1004.80 1004.34 1003.93 1003.57 1003.29 1003.09 1002.99 1002.99 1003.10 1003.31 1003.62 1004.04 1004.55 1005.15 1005.84
1010.74 1010.37 1009.98 1009.58 1009.18 1008.81 1008.48 1008.20 1007.98 1007.83 1007.73 1007.68 1007.66 1007.68 1007.70 1007.72 1007.72 1007.70 1007.65 1007.56 1007.42 1007.24 1007.01 1006.72 1006.39 1006.01 1005.60 1005.18 1004.74 1004.33 1003.94 1003.60 1003.32 1003.12 1003.00 1002.98 1003.04 1003.20 1003.46 1003.81 1004.25 1004.79 1005.42
1011.04 1010.59 1010.11 1009.61 1009.11 1008.63 1008.19 1007.81 1007.50 1007.26 1007.09 1006.98 1006.93 1006.93 1006.94 1006.98 1007.01 1007.03 1007.02 1006.98 1006.90 1006.77 1006.59 1006.36 1006.09 1005.76 1005.41 1005.04 1004.66 1004.30 1003.97 1003.67 1003.44 1003.26 1003.16 1003.13 1003.18 1003.30 1003.51 1003.80 1004.18 1004.64 1005.19
1011.41 1010.90 1010.36 1009.78 1009.21 1008.64 1008.12 1007.65 1007.24 1006.90 1006.65 1006.47 1006.35 1006.30 1006.28 1006.30 1006.33 1006.36 1006.38 1006.37 1006.32 1006.23 1006.09 1005.91 1005.67 1005.40 1005.10 1004.79 1004.48 1004.18 1003.92 1003.70 1003.52 1003.41 1003.35 1003.35 1003.42 1003.54 1003.72 1003.97 1004.29 1004.69 1005.16
1011.78 1011.26 1010.69 1010.08 1009.46 1008.85 1008.26 1007.71 1007.22 1006.81 1006.46 1006.20 1006.01 1005.88 1005.82 1005.79 1005.79 1005.80 1005.81 1005.80 1005.76 1005.68 1005.55 1005.38 1005.17 1004.93 1004.67 1004.40 1004.15 1003.93 1003.74 1003.60 1003.51 1003.48 1003.50 1003.56 1003.68 1003.83 1004.02 1004.26 1004.54 1004.89 1005.29
1012.13 1011.62 1011.06 1010.46 1009.83 1009.20 1008.59 1008.01 1007.47 1006.99 1006.58 1006.23 1005.97 1005.77 1005.63 1005.53 1005.48 1005.44 1005.41 1005.36 1005.29 1005.18 1005.03 1004.85 1004.63 1004.39 1004.15 1003.91 1003.70 1003.54 1003.42 1003.36 1003.37 1003.43 1003.54 1003.69 1003.87 1004.08 1004.32 1004.57 1004.85 1005.17 1005.53
1012.43 1011.95 1011.43 1010.87 1010.28 1009.68 1009.08 1008.49 1007.94 1007.43 1006.97 1006.57 1006.24 1005.97 1005.75 1005.58 1005.45 1005.33 1005.23 1005.11 1004.98 1004.81 1004.61 1004.38 1004.12 1003.86 1003.60 1003.36 1003.18 1003.05 1002.98 1003.00 1003.08 1003.23 1003.43 1003.68 1003.95 1004.24 1004.53 1004.83 1005.13 1005.44 1005.78
1012.65 1012.23 1011.77 1011.27 1010.75 1010.20 1009.65 1009.11 1008.57 1008.07 1007.59 1007.16 1006.78 1006.45 1006.16 1005.91 1005.69 1005.49 1005.29 1005.08 1004.86 1004.61 1004.33 1004.02 1003.71 1003.39 1003.09 1002.83 1002.64 1002.52 1002.48 1002.53 1002.68 1002.90 1003.18 1003.51 1003.86 1004.23 1004.59 1004.94 1005.29 1005.63 1005.97
1012.79 1012.43 1012.03 1011.61 1011.17 1010.70 1010.23 1009.75 1009.26 1008.79 1008.33 1007.89 1007.48 1007.11 1006.76 1006.43 1006.13 1005.84 1005.55 1005.25 1004.92 1004.58 1004.21 1003.82 1003.43 1003.04 1002.69 1002.38 1002.15 1002.01 1001.97 1002.03 1002.19 1002.45 1002.77 1003.16 1003.57 1004.00 1004.43 1004.85 1005.24 1005.62 1005.99
1012.83 1012.52 1012.19 1011.84 1011.48 1011.10 1010.71 1010.31 1009.89 1009.47 1009.04 1008.62 1008.20 1007.80 1007.41 1007.03 1006.66 1006.29 1005.91 1005.52 1005.12 1004.68 1004.23 1003.76 1003.29 1002.84 1002.42 1002.06 1001.77 1001.58 1001.50 1001.53 1001.67 1001.91 1002.24 1002.64 1003.08 1003.55 1004.02 1004.49 1004.94 1005.37 1005.77
1012.77 1012.50 1012.22 1011.93 1011.64 1011.34 1011.02 1010.69 1010.34 1009.97 1009.59 1009.19 1008.78 1008.37 1007.96 1007.55 1007.13 1006.71 1006.27 1005.82 1005.35 1004.86 1004.35 1003.82 1003.30 1002.79 1002.31 1001.89 1001.54 1001.28 1001.13 1001.09 1001.17 1001.35 1001.63 1001.99 1002.42 1002.88 1003.37 1003.86 1004.35 1004.83 1005.29
1012.62 1012.37 1012.12 1011.87 1011.62 1011.37 1011.11 1010.83 1010.53 1010.21 1009.87 1009.50 1009.12 1008.71 1008.30 1007.87 1007.43 1006.98 1006.52 1006.04 1005.55 1005.03 1004.50 1003.95 1003.40 1002.86 1002.34 1001.87 1001.46 1001.13 1000.89 1000.76 1000.74 1000.82 1001.00 1001.28 1001.63 1002.05 1002.51 1003.01 1003.52 1004.04 1004.55
1012.41 1012.16 1011.92 1011.68 1011.45 1011.22 1010.99 1010.74 1010.47 1010.18 1009.86 1009.52 1009.15 1008.77 1008.36 1007.94 1007.51 1007.06 1006.60 1006.13 1005.64 1005.14 1004.62 1004.09 1003.55 1003.01 1002.48 1001.98 1001.53 1001.13 1000.80 1000.56 1000.41 1000.37 1000.42 1000.58 1000.82 1001.16 1001.56 1002.02 1002.53 1003.07 1003.63
1012.17 1011.91 1011.66 1011.42 1011.18 1010.95 1010.71 1010.46 1010.20 1009.91 1009.61 1009.28 1008.93 1008.56 1008.17 1007.77 1007.35 1006.93 1006.50 1006.06 1005.61 1005.15 1004.68 1004.19 1003.69 1003.19 1002.68 1002.18 1001.70 1001.25 1000.85 1000.50 1000.23 1000.05 999.96 999.97 1000.08 1000.29 1000.61 1001.01 1001.49 1002.03 1002.62
Thickness
5693 5688 5684 5680 5677 5673 5669 5666 5663 5661 5659 5657 5656 5655 5653 5653 5652 5652 5653 5655 5657 5660 5664 5668 5672 5677 5681 5686 5689 5691 5694 5696 5696 5703 5711 5717 5722 5724 5726 5729 5731 5731 5730
5695 5690 5685 5682 5678 5674 5670 5667 5664 5660 5657 5655 5653 5652 5650 5649 5648 5648 5648 5650 5651 5654 5658 5662 5666 5671 5674 5679 5682 5685 5689 5692 5693 5695 5702 5707 5712 5717 5720 5722 5724 5725 5725
5698 5692 5687 5683 5679 5674 5670 5667 5663 5659 5656 5654 5651 5648 5647 5645 5645 5645 5645 5645 5647 5650 5653 5656 5660 5664 5668 5672 5676 5679 5683 5687 5689 5690 5694 5700 5704 5709 5711 5714 5716 5717 5719
5700 5694 5688 5684 5680 5675 5671 5667 5663 5659 5655 5652 5650 5647 5645 5643 5642 5641 5640 5640 5642 5645 5649 5652 5656 5660 5663 5666 5670 5673 5677 5679 5682 5684 5687 5691 5695 5700 5703 5704 5705 5708 5709
5701 5695 5690 5685 5681 5676 5671 5667 5664 5659 5656 5652 5649 5646 5644 5641 5639 5636 5636 5637 5638 5641 5645 5649 5653 5657 5660 5662 5665 5668 5670 5672 5675 5678 5680 5683 5686 5690 5693 5697 5697 5699 5700
5702 5696 5692 5687 5682 5677 5672 5668 5664 5660 5656 5653 5649 5646 5643 5640 5638 5636 5634 5633 5635 5637 5641 5645 5649 5653 5656 5658 5661 5663 5666 5667 5669 5671 5674 5677 5681 5685 5688 5689 5690 5690 5690
5703 5698 5693 5688 5682 5677 5674 5669 5664 5661 5657 5653 5650 5646 5643 5640 5637 5635 5634 5633 5634 5636 5639 5642 5645 5649 5651 5653 5656 5659 5661 5664 5666 5668 5670 5674 5678 5682 5683 5683 5684 5685 5686
5703 5698 5694 5689 5683 5679 5674 5669 5666 5662 5658 5654 5650 5647 5644 5641 5638 5635 5633 5633 5635 5636 5638 5640 5641 5643 5645 5647 5649 5652 5655 5659 5663 5665 5668 5672 5675 5678 5679 5679 5679 5678 5678
5703 5698 5695 5690 5684 5679 5674 5670 5667 5663 5659 5656 5652 5649 5645 5642 5640 5636 5633 5633 5634 5635 5637 5638 5639 5640 5642 5644 5645 5647 5650 5654 5659 5663 5666 5668 5670 5672 5672 5670 5669 5669 5668
5702 5699 5696 5691 5685 5680 5676 5672 5669 5665 5661 5658 5655 5652 5648 5644 5641 5638 5634 5632 5632 5633 5634 5636 5638 5638 5639 5640 5641 5642 5645 5649 5653 5657 5659 5662 5664 5666 5667 5667 5667 5664 5663
5700 5697 5694 5690 5686 5682 5678 5674 5670 5667 5663 5660 5657 5655 5652 5648 5644 5640 5636 5633 5631 5631 5632 5634 5635 5637 5638 5639 5640 5641 5643 5646 5648 5651 5653 5655 5657 5659 5660 5662 5663 5663 5661
5697 5693 5691 5689 5686 5684 5679 5675 5671 5667 5663 5660 5657 5656 5654 5651 5647 5642 5639 5635 5633 5631 5632 5633 5634 5636 5637 5638 5639 5641 5642 5643 5644 5646 5647 5649 5651 5653 5654 5655 5656 5658 5660
5692 5690 5688 5687 5686 5684 5680 5676 5672 5668 5663 5660 5657 5654 5653 5652 5649 5645 5641 5639 5636 5633 5633 5634 5635 5636 5636 5637 5638 5639 5640 5640 5641 5641 5643 5644 5646 5647 5648 5647 5648 5649 5650
5686 5686 5686 5684 5683 5682 5680 5676 5672 5668 5664 5660 5657 5654 5652 5651 5649 5645 5641 5639 5638 5635 5634 5634 5636 5637 5636 5636 5636 5637 5638 5638 5639 5639 5639 5639 5640 5640 5641 5641 5640 5640 5640
5680 5680 5680 5679 5678 5677 5676 5674 5671 5669 5665 5661 5658 5655 5651 5649 5648 5645 5641 5639 5636 5634 5633 5633 5634 5635 5635 5635 5635 5635 5636 5635 5635 5635 5635 5634 5634 5634 5634 5634 5634 5634 5634
5671 5670 5670 5670 5670 5670 5670 5670 5671 5668 5667 5663 5660 5656 5653 5651 5648 5645 5642 5639 5636 5633 5631 5631 5631 5632 5633 5633 5633 5633 5633 5632 5632 5631 5630 5630 5629 5629 5628 5629 5629 5630 5630
5661 5660 5660 5660 5661 5661 5662 5661 5661 5663 5663 5660 5657 5654 5651 5649 5646 5643 5640 5637 5634 5632 5629 5630 5630 5631 5631 5631 5631 5630 5630 5630 5629 5628 5626 5626 5625 5625 5624 5624 5624 5625 5626
5651 5650 5650 5650 5651 5652 5653 5653 5653 5653 5653 5653 5654 5651 5648 5646 5644 5641 5637 5633 5632 5631 5629 5630 5630 5630 5630 5630 5630 5629 5628 5628 5626 5625 5624 5623 5622 5622 5621 5621 5621 5622 5622
5641 5640 5640 5641 5642 5643 5644 5644 5644 5644 5644 5644 5645 5644 5642 5640 5638 5635 5631 5627 5629 5630 5630 5631 5631 5630 5630 5629 5629 5628 5627 5625 5625 5623 5622 5621 5621 5620 5619 5619 5619 5618 5618
5631 5631 5631 5632 5632 5632 5632 5633 5633 5632 5632 5632 5631 5631 5631 5629 5628 5627 5625 5624 5624 5626 5627 5628 5630 5630 5630 5629 5628 5626 5625 5623 5622 5621 5621 5620 5619 5619 5618 5617 5616 5616 5615
5620 5621 5622 5621 5620 5619 5619 5620 5620 5619 5618 5618 5618 5618 5617 5617 5617 5616 5617 5616 5617 5618 5620 5622 5624 5626 5627 5627 5626 5625 5623 5622 5621 5620 5619 5618 5618 5617 5616 5615 5615 5614 5613
5609 5609 5609 5609 5608 5607 5606 5607 5606 5605 5604 5604 5604 5604 5604 5603 5602 5602 5603 5604 5605 5607 5609 5612 5615 5617 5618 5620 5621 5621 5620 5620 5619 5619 5618 5617 5616 5615 5614 5613 5612 5611 5611
5597 5597 5597 5596 5595 5594 5594 5593 5592 5590 5589 5589 5588 5588 5587 5586 5585 5585 5586 5587 5589 5591 5594 5598 5601 5605 5607 5610 5612 5614 5616 5616 5617 5617 5616 5615 5614 5613 5612 5611 5610 5609 5608
5585 5585 5584 5583 5582 5581 5579 5578 5577 5575 5574 5573 5571 5570 5568 5567 5567 5567 5567 5569 5570 5572 5574 5577 5582 5587 5591 5596 5600 5603 5605 5607 5611 5612 5613 5612 5612 5611 5610 5609 5608 5607 5606
5573 5573 5572 5570 5569 5567 5565 5563 5561 5560 5558 5556 5554 5552 5550 5549 5548 5548 5547 5547 5548 5551 5554 5557 5561 5565 5571 5578 5583 5588 5592 5596 5599 5602 5605 5607 5608 5608 5607 5607 5606 5606 5605
5562 5562 5560 5558 5555 5552 5550 5547 5545 5543 5540 5538 5536 5533 5532 5530 5529 5528 5527 5527 5528 5529 5531 5535 5539 5544 5549 5557 5564 5571 5576 5582 5586 5590 5594 5598 5600 5602 5602 5603 5603 5602 5602